Regional Weather Roundup
Issued by NWS

Home | Current Version | Previous Version | Text Only | Print | Product List | Glossary On
Versions: 1 2 3 4 5 6 7 8 9 10 11 12 13 14 15 16 17 18 19 20 21 22 23 24 25 26 27 28 29 30 31 32 33 34 35 36 37 38 39 40 41 42 43 44 45 46 47 48 49 50
000
ASUS43 KDTX 300910
RWRMI
MICHIGAN HOURLY REGIONAL WEATHER ROUNDUP
NATIONAL WEATHER SERVICE DETROIT/PONTIAC MI
500 AM EDT TUE SEP 30 2014

NOTE: "FAIR" INDICATES FEW OR NO CLOUDS BELOW 12,000 FEET WITH NO
SIGNIFICANT WEATHER AND/OR OBSTRUCTION TO VISIBILITY.

MIZ047>049-052>055-059>063-066>070-074>076-081>083-301000-
SOUTHEAST LOWER MICHIGAN

CITY           SKY/WX    TMP DP  RH WIND       PRES   REMARKS
ADRIAN         RAIN      54  53  97 NE7       29.90F
ALMA           DRIZZLE   50  48  94 NW6       29.97S
ANN ARBOR      CLOUDY    53  50  89 N14       29.91R
BAD AXE        CLOUDY    51  51 100 N14       29.92R FOG
DETROIT CITY     N/A    N/A N/A N/A MISG        N/A
DETROIT        CLOUDY    56  53  90 NW12      29.91R
FLINT          CLOUDY    53  50  89 NW9G18    29.95R
GROSSE ILE     LGT RAIN  59  57  94 NW8       29.87S
HILLSDALE      CLOUDY    53  53  99 NW8       29.94R
HOWELL         CLOUDY    50  49  95 NW7       29.95R

CITY           SKY/WX    TMP DP  RH WIND       PRES   REMARKS
JACKSON        CLOUDY    49  48  97 N9        29.95R
LAMBERTVILLE   RAIN      57  54  88 NW8       29.93R
LANSING        CLOUDY    50  47  89 NW7       29.97R FOG
LAPEER         NOT AVBL
MASON          CLOUDY    49  48  95 N8        29.96R
MONROE         RAIN      57  55  94 NW10      29.88R
MT. CLEMENS    CLOUDY    56  56 100 NW10      29.88R
PONTIAC        CLOUDY    53  50  89 NW12      29.91R
PORT HOPE        N/A     54  52  93 VRB6      29.90R
PORT HURON     RAIN      55  55 100 N8        29.89R
TRI CITIES     CLOUDY    52  47  83 NW12      29.97R
YPSILANTI      CLOUDY    58  52  80 NW9       29.92R
$$
MIZ043>046-050>051-056>058-064>065-071>073-077>080-301000-
SOUTHWEST LOWER MICHIGAN

CITY           SKY/WX    TMP DP  RH WIND       PRES   REMARKS
BATTLE CREEK   CLOUDY    50  47  89 N8        29.98R
BIG RAPIDS     CLOUDY    47  47 100 NW6       29.99R
COLDWATER      CLOUDY    53  51  95 N13       29.96R
HOLLAND        CLOUDY    49  45  86 NW5       30.02R
GRAND RAPIDS   CLOUDY    49  48  97 NW8       30.00R
KALAMAZOO      CLOUDY    50  47  89 NW12      29.99R FOG
MARSHALL       CLOUDY    48  47  95 NW5       29.96R
MUSKEGON       PTCLDY    49  44  83 NW13      30.02S
$$
MIZ016>042-301000-
NORTHERN LOWER MICHIGAN

CITY           SKY/WX    TMP DP  RH WIND       PRES   REMARKS
ALPENA         CLOUDY    46  44  93 N13       29.98R
BEAVER ISLAND  CLOUDY    46  42  87 NE8       30.04S
BELLAIRE       CLOUDY    45  42  90 N6        30.02S
CADILLAC       CLOUDY    45  45 100 N7        29.98S FOG
CHARLEVOIX     CLOUDY    45  44  95 NE7       30.05S
FRANKFORT      PTSUNNY   48  44  85 N3        30.03S
GAYLORD        CLOUDY    42  41  96 N7        29.99S FOG
GRAYLING       CLOUDY    46  46  98 N6        29.99S FOG
HARBOR SPRINGS CLOUDY    44  41  89 NE5       30.02F
HOUGHTON LAKE  CLOUDY    46  44  93 N6        29.98S
OSCODA         LGT RAIN  47  47  99 N8        29.95R
PELLSTON       CLOUDY    44  41  89 N6        30.03S
TRAVERSE CITY  CLOUDY    49  45  86 N12       30.00S
$$
MIZ007>008-015-301000-
EASTERN UPPER MICHIGAN

CITY           SKY/WX    TMP DP  RH WIND       PRES   REMARKS
MACKINAC ISLAN CLOUDY    43  40  91 NE9       30.02S
NEWBERRY       CLOUDY    40  39  95 N6        30.04F
S. S. MARIE    CLOUDY    43  37  79 N6        30.03S
$$
MIZ004>006-011>014-085-301000-
CENTRAL UPPER MICHIGAN

CITY           SKY/WX    TMP DP  RH WIND       PRES   REMARKS
MANISTIQUE     CLOUDY    42  39  88 N7        30.07R
SAWYER-GWINN   CLOUDY    40  37  89 N12       30.10S
$$
MIZ001>003-009>011-084-301000-
WESTERN UPPER MICHIGAN

CITY           SKY/WX    TMP DP  RH WIND       PRES   REMARKS
IRON MOUNTAIN  CLOUDY    41  36  82 N10       30.10S
HOUGHTON       CLOUDY    39  35  86 NE5       30.14F
COPPER HARBOR    N/A     45  37  73 E7        30.15F
$$

ABBREVIATIONS USED IN REMARKS
   TC - TEMPERATURE IN CELSIUS
  WCI - WIND CHILL INDEX
   HX - HEAT INDEX
  VSB - VISIBILITY



USA.gov is the U.S. government's official web portal to all federal, state and local government web resources and services.